Location: Gebenbach
(49.5378°N, 11.8735°E)
Time: 03:26:39
(UTC+00:00)

Cosmos 1300 - Pass Details

Date: 29 October 2020
Orbit: 511 x 513 km, 82.5° (Epoch: 27 November)

Event Time Altitude Azimuth Distance (km) Brightness Sun altitude
Rises 17:05:06 0° 197° (SSW) 2,618 6.6 -11.9°
Reaches altitude 10° 17:07:14 10° 200° (SSW) 1,737 5.7 -12.2°
Maximum altitude 17:11:00 62° 282° (WNW) 587 3.2 -12.8°
Drops below altitude 10° 17:14:49 10° 4° (N) 1,752 5.3 -13.4°
Sets 17:16:59 0° 8° (N) 2,644 6.2 -13.8°
